Satellite: OKEAN-4
Catalog number: 23317
Epoch time: 10342.75446689
Element set: 0415
Inclination: 082.5394 deg
RA of node: 190.9152 deg
Eccentricity: 0.0023115
Arg of perigee: 030.2318 deg
Mean anomaly: 330.0228 deg
Mean motion: 14.82905518 rev/day
Decay rate: 2.60e-06 rev/day^2
Epoch rev: 87232
Checksum: 277
Satellite: NOAA-14
Catalog number: 23455
Epoch time: 10342.80511560
Element set: 0294
Inclination: 098.8677 deg
RA of node: 062.2271 deg
Eccentricity: 0.0010247
Arg of perigee: 098.9951 deg
Mean anomaly: 261.2372 deg
Mean motion: 14.13802646 rev/day
Decay rate: 2.0e-07 rev/day^2
Epoch rev: 82217
Checksum: 286
Satellite: NOAA-15
Catalog number: 25338
Epoch time: 10343.42927909
Element set: 624
Inclination: 098.6376 deg
RA of node: 327.3744 deg
Eccentricity: 0.0009840
Arg of perigee: 286.8180 deg
Mean anomaly: 073.1947 deg
Mean motion: 14.24871364 rev/day
Decay rate: 1.17e-06 rev/day^2
Epoch rev: 65370
Checksum: 326
Satellite: RESURS
Catalog number: 25394
Epoch time: 10342.57918893
Element set: 0671
Inclination: 098.2995 deg
RA of node: 351.1178 deg
Eccentricity: 0.0002436
Arg of perigee: 071.4793 deg
Mean anomaly: 288.6649 deg
Mean motion: 14.24218219 rev/day
Decay rate: 1.7e-07 rev/day^2
Epoch rev: 64517
Checksum: 329
Satellite: FENGYUN1
Catalog number: 25730
Epoch time: 10342.79795248
Element set: 0204
Inclination: 098.8020 deg
RA of node: 303.3569 deg
Eccentricity: 0.0020278
Arg of perigee: 127.4571 deg
Mean anomaly: 232.8445 deg
Mean motion: 14.08464641 rev/day
Decay rate: 1.239e-05 rev/day^2
Epoch rev: 59626
Checksum: 304
Satellite: OKEAN-0
Catalog number: 25860
Epoch time: 10343.66411225
Element set: 171
Inclination: 097.8576 deg
RA of node: 310.6396 deg
Eccentricity: 0.0000693
Arg of perigee: 100.4869 deg
Mean anomaly: 259.6406 deg
Mean motion: 14.73690447 rev/day
Decay rate: 9.6e-07 rev/day^2
Epoch rev: 61274
Checksum: 307
Satellite: NOAA-16
Catalog number: 26536
Epoch time: 10343.39322465
Element set: 102
Inclination: 099.1599 deg
RA of node: 004.9062 deg
Eccentricity: 0.0010412
Arg of perigee: 201.8480 deg
Mean anomaly: 158.2246 deg
Mean motion: 14.12590185 rev/day
Decay rate: 2.55e-06 rev/day^2
Epoch rev: 52656
Checksum: 281
Satellite: NOAA-17
Catalog number: 27453
Epoch time: 10342.79164106
Element set: 0094
Inclination: 098.4089 deg
RA of node: 025.9922 deg
Eccentricity: 0.0011540
Arg of perigee: 351.9183 deg
Mean anomaly: 008.1783 deg
Mean motion: 14.24217272 rev/day
Decay rate: 2.50e-06 rev/day^2
Epoch rev: 43955
Checksum: 296
Satellite: NOAA-18
Catalog number: 28654
Epoch time: 10342.83521298
Element set: 0582
Inclination: 098.9732 deg
RA of node: 288.7702 deg
Eccentricity: 0.0013597
Arg of perigee: 282.2874 deg
Mean anomaly: 077.6783 deg
Mean motion: 14.11417072 rev/day
Decay rate: 3.95e-06 rev/day^2
Epoch rev: 28607
Checksum: 343
Satellite: NOAA-19
Catalog number: 33591
Epoch time: 10342.86144618
Element set: 0775
Inclination: 098.8092 deg
RA of node: 281.4148 deg
Eccentricity: 0.0014456
Arg of perigee: 151.8484 deg
Mean anomaly: 208.3471 deg
Mean motion: 14.11108806 rev/day
Decay rate: -1.42e-06 rev/day^2
Epoch rev: 09454
Checksum: 308
/EX
SB KEPS @ AMSAT $ORB10343.M
Orbital Elements 10343.MISC
HR AMSAT ORBITAL ELEMENTS FOR MANNED AND MISCELLANEOUS SATELLITES
FROM WA5QGD FORT WORTH,TX December 9, 2010
Send Subscribe/unsubscribe to KEPS at http://www.amsat.org/mailman/listinfo/keps
BID: ORB10343.M
TO ALL RADIO AMATEURS BT
Satellite: HUBBLE
Catalog number: 20580
Epoch time: 10343.84618904
Element set: 685
Inclination: 028.4677 deg
RA of node: 172.9995 deg
Eccentricity: 0.0003542
Arg of perigee: 258.4127 deg
Mean anomaly: 101.6171 deg
Mean motion: 15.01112968 rev/day
Decay rate: 6.24e-06 rev/day^2
Epoch rev: 93117
Checksum: 297
Satellite: ISS
Catalog number: 25544
Epoch time: 10344.03577257
Element set: 425
Inclination: 051.6479 deg
RA of node: 050.5362 deg
Eccentricity: 0.0007816
Arg of perigee: 329.1455 deg
Mean anomaly: 094.4888 deg
Mean motion: 15.73097633 rev/day
Decay rate: 2.3227e-04 rev/day^2
Epoch rev: 69113
Checksum: 311
Satellite: CO-58
Catalog number: 28895
Epoch time: 10342.68262821
Element set: 0747
Inclination: 097.9905 deg
RA of node: 221.1316 deg
Eccentricity: 0.0018900
Arg of perigee: 098.0753 deg
Mean anomaly: 262.2617 deg
Mean motion: 14.59976262 rev/day
Decay rate: 2.27e-06 rev/day^2
Epoch rev: 27244
Checksum: 330
Satellite: FALCON
Catalog number: 30776
Epoch time: 10342.62472322
Element set: 974
Inclination: 035.4327 deg
RA of node: 065.0055 deg
Eccentricity: 0.0001381
Arg of perigee: 292.6259 deg
Mean anomaly: 067.4311 deg
Mean motion: 15.03995598 rev/day
Decay rate: 9.36e-06 rev/day^2
Epoch rev: 20633
Checksum: 291
Satellite: MAST
Catalog number: 31126
Epoch time: 10343.61280000
Element set: 31
Inclination: 097.9181 deg
RA of node: 016.3581 deg
Eccentricity: 0.0095504
Arg of perigee: 041.0587 deg
Mean anomaly: 319.7737 deg
Mean motion: 14.53652229 rev/day
Decay rate: 2.40e-06 rev/day^2
Epoch rev: 19354
Checksum: 265
Satellite: CAPE1
Catalog number: 31130
Epoch time: 10343.55762925
Element set: 50
Inclination: 097.9201 deg
RA of node: 013.3810 deg
Eccentricity: 0.0103483
Arg of perigee: 050.4447 deg
Mean anomaly: 310.5816 deg
Mean motion: 14.52262421 rev/day
Decay rate: -2.0e-07 rev/day^2
Epoch rev: 19311
Checksum: 234
Satellite: COMPASS
Catalog number: 32787
Epoch time: 10343.71807186
Element set: 850
Inclination: 097.8741 deg
RA of node: 045.8728 deg
Eccentricity: 0.0016826
Arg of perigee: 074.2157 deg
Mean anomaly: 286.0903 deg
Mean motion: 14.82070736 rev/day
Decay rate: 2.59e-06 rev/day^2
Epoch rev: 14149
Checksum: 318
Satellite: AAUSAT2
Catalog number: 32788
Epoch time: 10342.62340560
Element set: 0841
Inclination: 097.8756 deg
RA of node: 044.9666 deg
Eccentricity: 0.0016677
Arg of perigee: 078.8780 deg
Mean anomaly: 281.4318 deg
Mean motion: 14.82227999 rev/day
Decay rate: 6.52e-06 rev/day^2
Epoch rev: 14134
Checksum: 336
Satellite: DO-64
Catalog number: 32789
Epoch time: 10342.74470955
Element set: 0858
Inclination: 097.8833 deg
RA of node: 045.7772 deg
Eccentricity: 0.0016568
Arg of perigee: 078.0890 deg
Mean anomaly: 282.2208 deg
Mean motion: 14.82478988 rev/day
Decay rate: 1.015e-05 rev/day^2
Epoch rev: 14136
Checksum: 353
Satellite: CO-66
Catalog number: 32791
Epoch time: 10343.15951098
Element set: 842
Inclination: 097.8756 deg
RA of node: 045.3124 deg
Eccentricity: 0.0017199
Arg of perigee: 075.4376 deg
Mean anomaly: 284.8729 deg
Mean motion: 14.81825282 rev/day
Decay rate: 7.16e-06 rev/day^2
Epoch rev: 14136
Checksum: 337
Satellite: RS-30
Catalog number: 32953
Epoch time: 10343.75688228
Element set: 283
Inclination: 082.5011 deg
RA of node: 280.4982 deg
Eccentricity: 0.0020178
Arg of perigee: 078.7472 deg
Mean anomaly: 281.5874 deg
Mean motion: 12.43009728 rev/day
Decay rate: 1.0e-07 rev/day^2
Epoch rev: 11555
Checksum: 298
Satellite: TACSAT-3
Catalog number: 35001
Epoch time: 10343.86019615
Element set: 451
Inclination: 040.4554 deg
RA of node: 237.3506 deg
Eccentricity: 0.0023279
Arg of perigee: 243.9376 deg
Mean anomaly: 115.9049 deg
Mean motion: 15.43959127 rev/day
Decay rate: 6.698e-05 rev/day^2
Epoch rev: 8777
Checksum: 316
Satellite: PHARMSAT
Catalog number: 35002
Epoch time: 10343.83057480
Element set: 421
Inclination: 040.4700 deg
RA of node: 235.0732 deg
Eccentricity: 0.0025549
Arg of perigee: 245.8849 deg
Mean anomaly: 113.9347 deg
Mean motion: 15.44247211 rev/day
Decay rate: 5.960e-05 rev/day^2
Epoch rev: 8779
Checksum: 283
Satellite: HAWKSAT1
Catalog number: 35003
Epoch time: 10343.85170535
Element set: 457
Inclination: 040.4595 deg
RA of node: 222.9864 deg
Eccentricity: 0.0025188
Arg of perigee: 269.1669 deg
Mean anomaly: 090.6294 deg
Mean motion: 15.49852669 rev/day
Decay rate: 1.5183e-04 rev/day^2
Epoch rev: 8793
Checksum: 333
Satellite: CP6
Catalog number: 35004
Epoch time: 10342.80738742
Element set: 0458
Inclination: 040.4613 deg
RA of node: 226.4522 deg
Eccentricity: 0.0024469
Arg of perigee: 267.1123 deg
Mean anomaly: 092.6980 deg
Mean motion: 15.51674055 rev/day
Decay rate: 1.8099e-04 rev/day^2
Epoch rev: 08779
Checksum: 310
Satellite: AEROCUB3
Catalog number: 35005
Epoch time: 10343.82412639
Element set: 553
Inclination: 040.4587 deg
RA of node: 198.5894 deg
Eccentricity: 0.0024470
Arg of perigee: 297.0840 deg
Mean anomaly: 062.7505 deg
Mean motion: 15.80787148 rev/day
Decay rate: 2.58325e-03 rev/day^2
Epoch rev: 8819
Checksum: 325
Satellite: METEOR-M
Catalog number: 35865
Epoch time: 10343.71142920
Element set: 908
Inclination: 098.7359 deg
RA of node: 036.0397 deg
Eccentricity: 0.0001678
Arg of perigee: 210.9275 deg
Mean anomaly: 149.1757 deg
Mean motion: 14.21833451 rev/day
Decay rate: 1.76e-06 rev/day^2
Epoch rev: 6366
Checksum: 309
Satellite: RS-38
Catalog number: 35869
Epoch time: 10343.80424146
Element set: 919
Inclination: 098.7345 deg
RA of node: 036.1725 deg
Eccentricity: 0.0004041
Arg of perigee: 212.0080 deg
Mean anomaly: 148.0824 deg
Mean motion: 14.21995414 rev/day
Decay rate: 1.77e-06 rev/day^2
Epoch rev: 6368
Checksum: 298
/EX
More information about the Keps
mailing list